Year,Month,Day,Hour,Minute,Value (Times are PST for temperature in C)
2013,09,04,00,00,13.80
2013,09,04,00,01,13.80
2013,09,04,00,02,13.80
2013,09,04,00,03,13.80
2013,09,04,00,04,13.80
2013,09,04,00,05,13.80
2013,09,04,00,06,13.80
2013,09,04,00,07,13.80
2013,09,04,00,08,13.80
2013,09,04,00,09,13.80
2013,09,04,00,10,13.80
2013,09,04,00,11,13.70
2013,09,04,00,12,13.70
2013,09,04,00,13,13.70
2013,09,04,00,14,13.70
2013,09,04,00,15,13.70
2013,09,04,00,16,13.70
2013,09,04,00,17,13.70
2013,09,04,00,18,13.70
2013,09,04,00,19,13.70
2013,09,04,00,20,13.70
2013,09,04,00,21,13.70
2013,09,04,00,22,13.70
2013,09,04,00,23,13.70
2013,09,04,00,24,13.70
2013,09,04,00,25,13.70
2013,09,04,00,26,13.70
2013,09,04,00,27,13.70
2013,09,04,00,28,13.70
2013,09,04,00,29,13.70
2013,09,04,00,30,13.70
2013,09,04,00,31,13.70
2013,09,04,00,32,13.70
2013,09,04,00,33,13.70
2013,09,04,00,34,13.70
2013,09,04,00,35,13.70
2013,09,04,00,36,13.70
2013,09,04,00,37,13.70
2013,09,04,00,38,13.70
2013,09,04,00,39,13.70
2013,09,04,00,40,13.70
2013,09,04,00,41,13.70
2013,09,04,00,42,13.60
2013,09,04,00,43,13.60
2013,09,04,00,44,13.60
2013,09,04,00,45,13.60
2013,09,04,00,46,13.60
2013,09,04,00,47,13.60
2013,09,04,00,48,13.60
2013,09,04,00,49,13.60
2013,09,04,00,50,13.60
2013,09,04,00,51,13.60
2013,09,04,00,52,13.60
2013,09,04,00,53,13.60
2013,09,04,00,54,13.60
2013,09,04,00,55,13.60
2013,09,04,00,56,13.60
2013,09,04,00,57,13.60
2013,09,04,00,58,13.60
2013,09,04,00,59,13.60
2013,09,04,01,00,13.60
2013,09,04,01,01,13.60
2013,09,04,01,02,13.60
2013,09,04,01,03,13.60
2013,09,04,01,04,13.60
2013,09,04,01,05,13.50
2013,09,04,01,06,13.50
2013,09,04,01,07,13.50
2013,09,04,01,08,13.50
2013,09,04,01,09,13.50
2013,09,04,01,10,13.50
2013,09,04,01,11,13.50
2013,09,04,01,12,13.50
2013,09,04,01,13,13.50
2013,09,04,01,14,13.50
2013,09,04,01,15,13.50
2013,09,04,01,16,13.50
2013,09,04,01,17,13.50
2013,09,04,01,18,13.50
2013,09,04,01,19,13.50
2013,09,04,01,20,13.40
2013,09,04,01,21,13.40
2013,09,04,01,22,13.40
2013,09,04,01,23,13.40
2013,09,04,01,24,13.40
2013,09,04,01,25,13.40
2013,09,04,01,26,13.40
2013,09,04,01,27,13.40
2013,09,04,01,28,13.40
2013,09,04,01,29,13.40
2013,09,04,01,30,13.40
2013,09,04,01,31,13.40
2013,09,04,01,32,13.40
2013,09,04,01,33,13.40
2013,09,04,01,34,13.40
2013,09,04,01,35,13.30
2013,09,04,01,36,13.30
2013,09,04,01,37,13.30
2013,09,04,01,38,13.30
2013,09,04,01,39,13.30
2013,09,04,01,40,13.30
2013,09,04,01,41,13.30
2013,09,04,01,42,13.30
2013,09,04,01,43,13.20
2013,09,04,01,44,13.20
2013,09,04,01,45,13.20
2013,09,04,01,46,13.20
2013,09,04,01,47,13.20
2013,09,04,01,48,13.20
2013,09,04,01,49,13.20
2013,09,04,01,50,13.10
2013,09,04,01,51,13.10
2013,09,04,01,52,13.10
2013,09,04,01,53,13.10
2013,09,04,01,54,13.10
2013,09,04,01,55,13.10
2013,09,04,01,56,13.00
2013,09,04,01,57,13.00
2013,09,04,01,58,13.00
2013,09,04,01,59,13.00
2013,09,04,02,00,12.90
2013,09,04,02,01,12.90
2013,09,04,02,02,12.90
2013,09,04,02,03,12.90
2013,09,04,02,04,12.90
2013,09,04,02,05,12.90
2013,09,04,02,06,12.90
2013,09,04,02,07,12.90
2013,09,04,02,08,12.90
2013,09,04,02,09,12.90
2013,09,04,02,10,12.90
2013,09,04,02,11,12.80
2013,09,04,02,12,12.80
2013,09,04,02,13,12.80
2013,09,04,02,14,12.80
2013,09,04,02,15,12.80
2013,09,04,02,16,12.80
2013,09,04,02,17,12.70
2013,09,04,02,18,12.70
2013,09,04,02,19,12.70
2013,09,04,02,20,12.70
2013,09,04,02,21,12.70
2013,09,04,02,22,12.70
2013,09,04,02,23,12.70
2013,09,04,02,24,12.70
2013,09,04,02,25,12.60
2013,09,04,02,26,12.60
2013,09,04,02,27,12.60
2013,09,04,02,28,12.50
2013,09,04,02,29,12.50
2013,09,04,02,30,12.50
2013,09,04,02,31,12.50
2013,09,04,02,32,12.50
2013,09,04,02,33,12.50
2013,09,04,02,34,12.50
2013,09,04,02,35,12.50
2013,09,04,02,36,12.40
2013,09,04,02,37,12.40
2013,09,04,02,38,12.40
2013,09,04,02,39,12.40
2013,09,04,02,40,12.40
2013,09,04,02,41,12.40
2013,09,04,02,42,12.40
2013,09,04,02,43,12.40
2013,09,04,02,44,12.40
2013,09,04,02,45,12.40
2013,09,04,02,46,12.40
2013,09,04,02,47,12.30
2013,09,04,02,48,12.30
2013,09,04,02,49,12.30
2013,09,04,02,50,12.30
2013,09,04,02,51,12.30
2013,09,04,02,52,12.20
2013,09,04,02,53,12.20
2013,09,04,02,54,12.20
2013,09,04,02,55,12.20
2013,09,04,02,56,12.20
2013,09,04,02,57,12.20
2013,09,04,02,58,12.20
2013,09,04,02,59,12.20
2013,09,04,03,00,12.20
2013,09,04,03,01,12.20
2013,09,04,03,02,12.10
2013,09,04,03,03,12.10
2013,09,04,03,04,12.10
2013,09,04,03,05,12.10
2013,09,04,03,06,12.10
2013,09,04,03,07,12.10
2013,09,04,03,08,12.10
2013,09,04,03,09,12.10
2013,09,04,03,10,12.10
2013,09,04,03,11,12.00
2013,09,04,03,12,12.00
2013,09,04,03,13,12.00
2013,09,04,03,14,12.00
2013,09,04,03,15,12.00
2013,09,04,03,16,12.00
2013,09,04,03,17,11.90
2013,09,04,03,18,11.90
2013,09,04,03,19,11.90
2013,09,04,03,20,11.90
2013,09,04,03,21,11.90
2013,09,04,03,22,11.90
2013,09,04,03,23,11.90
2013,09,04,03,24,11.90
2013,09,04,03,25,11.90
2013,09,04,03,26,11.90
2013,09,04,03,27,11.90
2013,09,04,03,28,11.90
2013,09,04,03,29,11.90
2013,09,04,03,30,11.90
2013,09,04,03,31,11.90
2013,09,04,03,32,11.90
2013,09,04,03,33,11.90
2013,09,04,03,34,11.90
2013,09,04,03,35,11.90
2013,09,04,03,36,11.90
2013,09,04,03,37,11.90
2013,09,04,03,38,11.90
2013,09,04,03,39,11.90
2013,09,04,03,40,11.90
2013,09,04,03,41,11.90
2013,09,04,03,42,11.90
2013,09,04,03,43,11.90
2013,09,04,03,44,11.90
2013,09,04,03,45,11.90
2013,09,04,03,46,11.90
2013,09,04,03,47,11.90
2013,09,04,03,48,11.90
2013,09,04,03,49,11.90
2013,09,04,03,50,11.90
2013,09,04,03,51,11.90
2013,09,04,03,52,11.90
2013,09,04,03,53,11.90
2013,09,04,03,54,11.90
2013,09,04,03,55,11.90
2013,09,04,03,56,11.90
2013,09,04,03,57,11.90
2013,09,04,03,58,11.90
2013,09,04,03,59,11.90
2013,09,04,04,00,12.00
2013,09,04,04,01,12.00
2013,09,04,04,02,12.00
2013,09,04,04,03,12.00
2013,09,04,04,04,12.00
2013,09,04,04,05,12.00
2013,09,04,04,06,12.00
2013,09,04,04,07,12.00
2013,09,04,04,08,12.00
2013,09,04,04,09,12.00
2013,09,04,04,10,12.00
2013,09,04,04,11,12.00
2013,09,04,04,12,11.90
2013,09,04,04,13,11.90
2013,09,04,04,14,11.90
2013,09,04,04,15,11.90
2013,09,04,04,16,11.90
2013,09,04,04,17,11.90
2013,09,04,04,18,11.90
2013,09,04,04,19,11.90
2013,09,04,04,20,11.90
2013,09,04,04,21,12.00
2013,09,04,04,22,12.00
2013,09,04,04,23,12.00
2013,09,04,04,24,12.00
2013,09,04,04,25,12.10
2013,09,04,04,26,12.10
2013,09,04,04,27,12.10
2013,09,04,04,28,12.10
2013,09,04,04,29,12.10
2013,09,04,04,30,12.10
2013,09,04,04,31,12.10
2013,09,04,04,32,12.20
2013,09,04,04,33,12.20
2013,09,04,04,34,12.20
2013,09,04,04,35,12.20
2013,09,04,04,36,12.20
2013,09,04,04,37,12.20
2013,09,04,04,38,12.20
2013,09,04,04,39,12.20
2013,09,04,04,40,12.20
2013,09,04,04,41,12.20
2013,09,04,04,42,12.20
2013,09,04,04,43,12.20
2013,09,04,04,44,12.30
2013,09,04,04,45,12.30
2013,09,04,04,46,12.30
2013,09,04,04,47,12.30
2013,09,04,04,48,12.20
2013,09,04,04,49,12.20
2013,09,04,04,50,12.20
2013,09,04,04,51,12.20
2013,09,04,04,52,12.20
2013,09,04,04,53,12.20
2013,09,04,04,54,12.20
2013,09,04,04,55,12.20
2013,09,04,04,56,12.20
2013,09,04,04,57,12.20
2013,09,04,04,58,12.20
2013,09,04,04,59,12.20
2013,09,04,05,00,12.20
2013,09,04,05,01,12.20
2013,09,04,05,02,12.20
2013,09,04,05,03,12.20
2013,09,04,05,04,12.20
2013,09,04,05,05,12.20
2013,09,04,05,06,12.20
2013,09,04,05,07,12.20
2013,09,04,05,08,12.20
2013,09,04,05,09,12.20
2013,09,04,05,10,12.20
2013,09,04,05,11,12.20
2013,09,04,05,12,12.20
2013,09,04,05,13,12.20
2013,09,04,05,14,12.20
2013,09,04,05,15,12.20
2013,09,04,05,16,12.20
2013,09,04,05,17,12.20
2013,09,04,05,18,12.20
2013,09,04,05,19,12.20
2013,09,04,05,20,12.20
2013,09,04,05,21,12.10
2013,09,04,05,22,12.10
2013,09,04,05,23,12.10
2013,09,04,05,24,12.10
2013,09,04,05,25,12.10
2013,09,04,05,26,12.10
2013,09,04,05,27,12.10
2013,09,04,05,28,12.10
2013,09,04,05,29,12.10
2013,09,04,05,30,12.00
2013,09,04,05,31,12.00
2013,09,04,05,32,12.00
2013,09,04,05,33,12.00
2013,09,04,05,34,12.00
2013,09,04,05,35,12.00
2013,09,04,05,36,12.00
2013,09,04,05,37,12.00
2013,09,04,05,38,12.00
2013,09,04,05,39,12.00
2013,09,04,05,40,12.00
2013,09,04,05,41,12.00
2013,09,04,05,42,12.00
2013,09,04,05,43,12.00
2013,09,04,05,44,12.00
2013,09,04,05,45,12.00
2013,09,04,05,46,12.00
2013,09,04,05,47,12.00
2013,09,04,05,48,12.00
2013,09,04,05,49,12.00
2013,09,04,05,50,12.00
2013,09,04,05,51,12.00
2013,09,04,05,52,12.00
2013,09,04,05,53,12.00
2013,09,04,05,54,12.00
2013,09,04,05,55,12.00
2013,09,04,05,56,12.00
2013,09,04,05,57,12.00
2013,09,04,05,58,12.00
2013,09,04,05,59,12.00
2013,09,04,06,00,11.90
2013,09,04,06,01,11.90
2013,09,04,06,02,11.90
2013,09,04,06,03,11.90
2013,09,04,06,04,11.90
2013,09,04,06,05,11.90
2013,09,04,06,06,11.90
2013,09,04,06,07,11.90
2013,09,04,06,08,11.90
2013,09,04,06,09,11.90
2013,09,04,06,10,11.90
2013,09,04,06,11,11.90
2013,09,04,06,12,11.90
2013,09,04,06,13,11.90
2013,09,04,06,14,11.90
2013,09,04,06,15,11.90
2013,09,04,06,16,11.90
2013,09,04,06,17,11.90
2013,09,04,06,18,11.90
2013,09,04,06,19,11.90
2013,09,04,06,20,11.90
2013,09,04,06,21,11.90
2013,09,04,06,22,11.90
2013,09,04,06,23,11.90
2013,09,04,06,24,11.90
2013,09,04,06,25,11.90
2013,09,04,06,26,11.90
2013,09,04,06,27,11.90
2013,09,04,06,28,11.90
2013,09,04,06,29,11.90
2013,09,04,06,30,11.90
2013,09,04,06,31,11.90
2013,09,04,06,32,11.90
2013,09,04,06,33,11.90
2013,09,04,06,34,11.90
2013,09,04,06,35,11.90
2013,09,04,06,36,11.80
2013,09,04,06,37,11.80
2013,09,04,06,38,11.80
2013,09,04,06,39,11.80
2013,09,04,06,40,11.80
2013,09,04,06,41,11.80
2013,09,04,06,42,11.80
2013,09,04,06,43,11.80
2013,09,04,06,44,11.80
2013,09,04,06,45,11.80
2013,09,04,06,46,11.80
2013,09,04,06,47,11.80
2013,09,04,06,48,11.80
2013,09,04,06,49,11.80
2013,09,04,06,50,11.80
2013,09,04,06,51,11.70
2013,09,04,06,52,11.70
2013,09,04,06,53,11.70
2013,09,04,06,54,11.70
2013,09,04,06,55,11.70
2013,09,04,06,56,11.70
2013,09,04,06,57,11.70
2013,09,04,06,58,11.70
2013,09,04,06,59,11.70
2013,09,04,07,00,11.70
2013,09,04,07,01,11.70
2013,09,04,07,02,11.70
2013,09,04,07,03,11.70
2013,09,04,07,04,11.60
2013,09,04,07,05,11.60
2013,09,04,07,06,11.60
2013,09,04,07,07,11.60
2013,09,04,07,08,11.60
2013,09,04,07,09,11.60
2013,09,04,07,10,11.60
2013,09,04,07,11,11.60
2013,09,04,07,12,11.60
2013,09,04,07,13,11.60
2013,09,04,07,14,11.60
2013,09,04,07,15,11.60
2013,09,04,07,16,11.60
2013,09,04,07,17,11.60
2013,09,04,07,18,11.60
2013,09,04,07,19,11.60
2013,09,04,07,20,11.60
2013,09,04,07,21,11.60
2013,09,04,07,22,11.60
2013,09,04,07,23,11.60
2013,09,04,07,24,11.60
2013,09,04,07,25,11.60
2013,09,04,07,26,11.60
2013,09,04,07,27,11.60
2013,09,04,07,28,11.60
2013,09,04,07,29,11.60
2013,09,04,07,30,11.60
2013,09,04,07,31,11.60
2013,09,04,07,32,11.60
2013,09,04,07,33,11.60
2013,09,04,07,34,11.60
2013,09,04,07,35,11.70
2013,09,04,07,36,11.70
2013,09,04,07,37,11.70
2013,09,04,07,38,11.70
2013,09,04,07,39,11.70
2013,09,04,07,40,11.70
2013,09,04,07,41,11.70
2013,09,04,07,42,11.70
2013,09,04,07,43,11.70
2013,09,04,07,44,11.70
2013,09,04,07,45,11.70
2013,09,04,07,46,11.70
2013,09,04,07,47,11.80
2013,09,04,07,48,11.80
2013,09,04,07,49,11.80
2013,09,04,07,50,11.80
2013,09,04,07,51,11.80
2013,09,04,07,52,11.80
2013,09,04,07,53,11.80
2013,09,04,07,54,11.80
2013,09,04,07,55,11.80
2013,09,04,07,56,11.80
2013,09,04,07,57,11.80
2013,09,04,07,58,11.80
2013,09,04,07,59,11.90
2013,09,04,08,00,11.90
2013,09,04,08,01,11.90
2013,09,04,08,02,11.90
2013,09,04,08,03,11.90
2013,09,04,08,04,11.90
2013,09,04,08,05,11.90
2013,09,04,08,06,11.90
2013,09,04,08,07,11.90
2013,09,04,08,08,11.90
2013,09,04,08,09,11.90
2013,09,04,08,10,11.90
2013,09,04,08,11,11.90
2013,09,04,08,12,11.90
2013,09,04,08,13,11.90
2013,09,04,08,14,11.90
2013,09,04,08,15,11.90
2013,09,04,08,16,11.90
2013,09,04,08,17,11.90
2013,09,04,08,18,11.90
2013,09,04,08,19,12.00
2013,09,04,08,20,12.00
2013,09,04,08,21,12.00
2013,09,04,08,22,12.00
2013,09,04,08,23,12.00
2013,09,04,08,24,12.10
2013,09,04,08,25,12.10
2013,09,04,08,26,12.10
2013,09,04,08,27,12.10
2013,09,04,08,28,12.10
2013,09,04,08,29,12.10
2013,09,04,08,30,12.10
2013,09,04,08,31,12.10
2013,09,04,08,32,12.10
2013,09,04,08,33,12.10
2013,09,04,08,34,12.20
2013,09,04,08,35,12.20
2013,09,04,08,36,12.20
2013,09,04,08,37,12.20
2013,09,04,08,38,12.20
2013,09,04,08,39,12.20
2013,09,04,08,40,12.20
2013,09,04,08,41,12.20
2013,09,04,08,42,12.20
2013,09,04,08,43,12.20
2013,09,04,08,44,12.30
2013,09,04,08,45,12.30
2013,09,04,08,46,12.30
2013,09,04,08,47,12.30
2013,09,04,08,48,12.30
2013,09,04,08,49,12.30
2013,09,04,08,50,12.30
2013,09,04,08,51,12.30
2013,09,04,08,52,12.30
2013,09,04,08,53,12.40
2013,09,04,08,54,12.40
2013,09,04,08,55,12.40
2013,09,04,08,56,12.40
2013,09,04,08,57,12.40
2013,09,04,08,58,12.40
2013,09,04,08,59,12.40
2013,09,04,09,00,12.40
2013,09,04,09,01,12.40
2013,09,04,09,02,12.40
2013,09,04,09,03,12.40
2013,09,04,09,04,12.40
2013,09,04,09,05,12.40
2013,09,04,09,06,12.50
2013,09,04,09,07,12.50
2013,09,04,09,08,12.50
2013,09,04,09,09,12.50
2013,09,04,09,10,12.60
2013,09,04,09,11,12.60
2013,09,04,09,12,12.60
2013,09,04,09,13,12.60
2013,09,04,09,14,12.60
2013,09,04,09,15,12.60
2013,09,04,09,16,12.70
2013,09,04,09,17,12.70
2013,09,04,09,18,12.70
2013,09,04,09,19,12.70
2013,09,04,09,20,12.70
2013,09,04,09,21,12.80
2013,09,04,09,22,12.80
2013,09,04,09,23,12.80
2013,09,04,09,24,12.80
2013,09,04,09,25,12.90
2013,09,04,09,26,12.90
2013,09,04,09,27,12.90
2013,09,04,09,28,13.00
2013,09,04,09,29,13.00
2013,09,04,09,30,13.00
2013,09,04,09,31,13.10
2013,09,04,09,32,13.10
2013,09,04,09,33,13.20
2013,09,04,09,34,13.20
2013,09,04,09,35,13.20
2013,09,04,09,36,13.20
2013,09,04,09,37,13.20
2013,09,04,09,38,13.30
2013,09,04,09,39,13.30
2013,09,04,09,40,13.30
2013,09,04,09,41,13.30
2013,09,04,09,42,13.30
2013,09,04,09,43,13.30
2013,09,04,09,44,13.40
2013,09,04,09,45,13.40
2013,09,04,09,46,13.40
2013,09,04,09,47,13.40
2013,09,04,09,48,13.40
2013,09,04,09,49,13.50
2013,09,04,09,50,13.50
2013,09,04,09,51,13.50
2013,09,04,09,52,13.60
2013,09,04,09,53,13.60
2013,09,04,09,54,13.60
2013,09,04,09,55,13.60
2013,09,04,09,56,13.60
2013,09,04,09,57,13.60
2013,09,04,09,58,13.60
2013,09,04,09,59,13.60
2013,09,04,10,00,13.70
2013,09,04,10,01,13.70
2013,09,04,10,02,13.70
2013,09,04,10,03,13.70
2013,09,04,10,04,13.70
2013,09,04,10,05,13.70
2013,09,04,10,06,13.70
2013,09,04,10,07,13.80
2013,09,04,10,08,13.80
2013,09,04,10,09,13.80
2013,09,04,10,10,13.80
2013,09,04,10,11,13.90
2013,09,04,10,12,13.90
2013,09,04,10,13,13.90
2013,09,04,10,14,14.00
2013,09,04,10,15,14.00
2013,09,04,10,16,14.10
2013,09,04,10,17,14.10
2013,09,04,10,18,14.20
2013,09,04,10,19,14.20
2013,09,04,10,20,14.20
2013,09,04,10,21,14.20
2013,09,04,10,22,14.20
2013,09,04,10,23,14.20
2013,09,04,10,24,14.20
2013,09,04,10,25,14.30
2013,09,04,10,26,14.30
2013,09,04,10,27,14.30
2013,09,04,10,28,14.30
2013,09,04,10,29,14.20
2013,09,04,10,30,14.20
2013,09,04,10,31,14.20
2013,09,04,10,32,14.20
2013,09,04,10,33,14.20
2013,09,04,10,34,14.20
2013,09,04,10,35,14.20
2013,09,04,10,36,14.20
2013,09,04,10,37,14.20
2013,09,04,10,38,14.20
2013,09,04,10,39,14.20
2013,09,04,10,40,14.20
2013,09,04,10,41,14.20
2013,09,04,10,42,14.20
2013,09,04,10,43,14.20
2013,09,04,10,44,14.20
2013,09,04,10,45,14.20
2013,09,04,10,46,14.20
2013,09,04,10,47,14.20
2013,09,04,10,48,14.20
2013,09,04,10,49,14.20
2013,09,04,10,50,14.20
2013,09,04,10,51,14.30
2013,09,04,10,52,14.30
2013,09,04,10,53,14.30
2013,09,04,10,54,14.30
2013,09,04,10,55,14.40
2013,09,04,10,56,14.40
2013,09,04,10,57,14.50
2013,09,04,10,58,14.50
2013,09,04,10,59,14.60
2013,09,04,11,00,14.60
2013,09,04,11,01,14.60
2013,09,04,11,02,14.60
2013,09,04,11,03,14.60
2013,09,04,11,04,14.70
2013,09,04,11,05,14.70
2013,09,04,11,06,14.70
2013,09,04,11,07,14.80
2013,09,04,11,08,14.80
2013,09,04,11,09,14.80
2013,09,04,11,10,14.80
2013,09,04,11,11,14.90
2013,09,04,11,12,14.90
2013,09,04,11,13,14.90
2013,09,04,11,14,15.00
2013,09,04,11,15,15.00
2013,09,04,11,16,15.10
2013,09,04,11,17,15.10
2013,09,04,11,18,15.10
2013,09,04,11,19,15.10
2013,09,04,11,20,15.10
2013,09,04,11,21,15.10
2013,09,04,11,22,15.10
2013,09,04,11,23,15.10
2013,09,04,11,24,15.10
2013,09,04,11,25,15.20
2013,09,04,11,26,15.20
2013,09,04,11,27,15.20
2013,09,04,11,28,15.20
2013,09,04,11,29,15.20
2013,09,04,11,30,15.20
2013,09,04,11,31,15.20
2013,09,04,11,32,15.30
2013,09,04,11,33,15.30
2013,09,04,11,34,15.30
2013,09,04,11,35,15.40
2013,09,04,11,36,15.40
2013,09,04,11,37,15.40
2013,09,04,11,38,15.50
2013,09,04,11,39,15.60
2013,09,04,11,40,15.60
2013,09,04,11,41,15.60
2013,09,04,11,42,15.70
2013,09,04,11,43,15.70
2013,09,04,11,44,15.70
2013,09,04,11,45,15.70
2013,09,04,11,46,15.70
2013,09,04,11,47,15.70
2013,09,04,11,48,15.80
2013,09,04,11,49,15.80
2013,09,04,11,50,15.70
2013,09,04,11,51,15.70
2013,09,04,11,52,15.70
2013,09,04,11,53,15.70
2013,09,04,11,54,15.70
2013,09,04,11,55,15.70
2013,09,04,11,56,15.70
2013,09,04,11,57,15.70
2013,09,04,11,58,15.70
2013,09,04,11,59,15.60
2013,09,04,12,00,15.60
2013,09,04,12,01,15.60
2013,09,04,12,02,15.60
2013,09,04,12,03,15.60
2013,09,04,12,04,15.60
2013,09,04,12,05,15.60
2013,09,04,12,06,15.60
2013,09,04,12,07,15.50
2013,09,04,12,08,15.50
2013,09,04,12,09,15.50
2013,09,04,12,10,15.40
2013,09,04,12,11,15.50
2013,09,04,12,12,15.50
2013,09,04,12,13,15.50
2013,09,04,12,14,15.50
2013,09,04,12,15,15.60
2013,09,04,12,16,15.60
2013,09,04,12,17,15.60
2013,09,04,12,18,15.70
2013,09,04,12,19,15.70
2013,09,04,12,20,15.80
2013,09,04,12,21,15.80
2013,09,04,12,22,15.90
2013,09,04,12,23,16.00
2013,09,04,12,24,16.00
2013,09,04,12,25,16.10
2013,09,04,12,26,16.10
2013,09,04,12,27,16.20
2013,09,04,12,28,16.20
2013,09,04,12,29,16.30
2013,09,04,12,30,16.30
2013,09,04,12,31,16.40
2013,09,04,12,32,16.40
2013,09,04,12,33,16.50
2013,09,04,12,34,16.60
2013,09,04,12,35,16.70
2013,09,04,12,36,16.80
2013,09,04,12,37,16.90
2013,09,04,12,38,16.90
2013,09,04,12,39,17.00
2013,09,04,12,40,17.10
2013,09,04,12,41,17.10
2013,09,04,12,42,17.10
2013,09,04,12,43,17.10
2013,09,04,12,44,17.10
2013,09,04,12,45,17.20
2013,09,04,12,46,17.20
2013,09,04,12,47,17.30
2013,09,04,12,48,17.40
2013,09,04,12,49,17.40
2013,09,04,12,50,17.50
2013,09,04,12,51,17.60
2013,09,04,12,52,17.60
2013,09,04,12,53,17.70
2013,09,04,12,54,17.80
2013,09,04,12,55,17.80
2013,09,04,12,56,17.70
2013,09,04,12,57,17.70
2013,09,04,12,58,17.70
2013,09,04,12,59,17.80
2013,09,04,13,00,17.80
2013,09,04,13,01,17.80
2013,09,04,13,02,17.80
2013,09,04,13,03,17.80
2013,09,04,13,04,17.80
2013,09,04,13,05,17.80
2013,09,04,13,06,17.80
2013,09,04,13,07,17.80
2013,09,04,13,08,17.80
2013,09,04,13,09,17.70
2013,09,04,13,10,17.80
2013,09,04,13,11,17.80
2013,09,04,13,12,17.80
2013,09,04,13,13,17.80
2013,09,04,13,14,17.90
2013,09,04,13,15,17.90
2013,09,04,13,16,18.00
2013,09,04,13,17,18.00
2013,09,04,13,18,18.10
2013,09,04,13,19,18.20
2013,09,04,13,20,18.30
2013,09,04,13,21,18.30
2013,09,04,13,22,18.40
2013,09,04,13,23,18.40
2013,09,04,13,24,18.50
2013,09,04,13,25,18.60
2013,09,04,13,26,18.70
2013,09,04,13,27,18.80
2013,09,04,13,28,18.80
2013,09,04,13,29,18.90
2013,09,04,13,30,19.00
2013,09,04,13,31,19.00
2013,09,04,13,32,19.10
2013,09,04,13,33,19.20
2013,09,04,13,34,19.30
2013,09,04,13,35,19.40
2013,09,04,13,36,19.50
2013,09,04,13,37,19.60
2013,09,04,13,38,19.60
2013,09,04,13,39,19.70
2013,09,04,13,40,19.70
2013,09,04,13,41,19.70
2013,09,04,13,42,19.70
2013,09,04,13,43,19.70
2013,09,04,13,44,19.80
2013,09,04,13,45,19.80
2013,09,04,13,46,19.90
2013,09,04,13,47,19.90
2013,09,04,13,48,19.90
2013,09,04,13,49,20.00
2013,09,04,13,50,20.00
2013,09,04,13,51,20.00
2013,09,04,13,52,20.10
2013,09,04,13,53,20.10
2013,09,04,13,54,20.20
2013,09,04,13,55,20.30
2013,09,04,13,56,20.50
2013,09,04,13,57,20.60
2013,09,04,13,58,20.60
2013,09,04,13,59,20.70
2013,09,04,14,00,20.80
2013,09,04,14,01,20.90
2013,09,04,14,02,21.00
2013,09,04,14,03,21.00
2013,09,04,14,04,21.10
2013,09,04,14,05,21.10
2013,09,04,14,06,21.20
2013,09,04,14,07,21.20
2013,09,04,14,08,21.30
2013,09,04,14,09,21.30
2013,09,04,14,10,21.30
2013,09,04,14,11,21.40
2013,09,04,14,12,21.40
2013,09,04,14,13,21.50
2013,09,04,14,14,21.60
2013,09,04,14,15,21.70
2013,09,04,14,16,21.80
2013,09,04,14,17,21.80
2013,09,04,14,18,21.90
2013,09,04,14,19,21.90
2013,09,04,14,20,22.00
2013,09,04,14,21,22.10
2013,09,04,14,22,22.10
2013,09,04,14,23,22.20
2013,09,04,14,24,22.30
2013,09,04,14,25,22.40
2013,09,04,14,26,22.50
2013,09,04,14,27,22.50
2013,09,04,14,28,22.60
2013,09,04,14,29,22.80
2013,09,04,14,30,22.90
2013,09,04,14,31,23.00
2013,09,04,14,32,23.10
2013,09,04,14,33,23.20
2013,09,04,14,34,23.20
2013,09,04,14,35,23.30
2013,09,04,14,36,23.40
2013,09,04,14,37,23.50
2013,09,04,14,38,23.50
2013,09,04,14,39,23.40
2013,09,04,14,40,23.40
2013,09,04,14,41,23.30
2013,09,04,14,42,23.30
2013,09,04,14,43,23.30
2013,09,04,14,44,23.40
2013,09,04,14,45,23.50
2013,09,04,14,46,23.60
2013,09,04,14,47,23.70
2013,09,04,14,48,23.70
2013,09,04,14,49,23.70
2013,09,04,14,50,23.80
2013,09,04,14,51,23.80
2013,09,04,14,52,23.80
2013,09,04,14,53,23.80
2013,09,04,14,54,23.70
2013,09,04,14,55,23.70
2013,09,04,14,56,23.70
2013,09,04,14,57,23.70
2013,09,04,14,58,23.80
2013,09,04,14,59,23.90
2013,09,04,15,00,23.90
2013,09,04,15,01,23.90
2013,09,04,15,02,23.90
2013,09,04,15,03,24.00
2013,09,04,15,04,24.10
2013,09,04,15,05,24.20
2013,09,04,15,06,24.30
2013,09,04,15,07,24.40
2013,09,04,15,08,24.50
2013,09,04,15,09,24.60
2013,09,04,15,10,24.70
2013,09,04,15,11,24.80
2013,09,04,15,12,24.80
2013,09,04,15,13,24.70
2013,09,04,15,14,24.70
2013,09,04,15,15,24.70
2013,09,04,15,16,24.70
2013,09,04,15,17,24.70
2013,09,04,15,18,24.70
2013,09,04,15,19,24.70
2013,09,04,15,20,24.70
2013,09,04,15,21,24.80
2013,09,04,15,22,24.80
2013,09,04,15,23,24.80
2013,09,04,15,24,24.90
2013,09,04,15,25,24.90
2013,09,04,15,26,25.00
2013,09,04,15,27,25.10
2013,09,04,15,28,25.20
2013,09,04,15,29,25.20
2013,09,04,15,30,25.10
2013,09,04,15,31,25.00
2013,09,04,15,32,24.90
2013,09,04,15,33,24.80
2013,09,04,15,34,24.70
2013,09,04,15,35,24.60
2013,09,04,15,36,24.50
2013,09,04,15,37,24.50
2013,09,04,15,38,24.50
2013,09,04,15,39,24.50
2013,09,04,15,40,24.40
2013,09,04,15,41,24.40
2013,09,04,15,42,24.30
2013,09,04,15,43,24.20
2013,09,04,15,44,24.20
2013,09,04,15,45,24.10
2013,09,04,15,46,24.10
2013,09,04,15,47,24.10
2013,09,04,15,48,24.10
2013,09,04,15,49,24.10
2013,09,04,15,50,24.10
2013,09,04,15,51,24.20
2013,09,04,15,52,24.20
2013,09,04,15,53,24.20
2013,09,04,15,54,24.20
2013,09,04,15,55,24.30
2013,09,04,15,56,24.30
2013,09,04,15,57,24.30
2013,09,04,15,58,24.30
2013,09,04,15,59,24.40
2013,09,04,16,00,24.40
2013,09,04,16,01,24.40
2013,09,04,16,02,24.40
2013,09,04,16,03,24.40
2013,09,04,16,04,24.40
2013,09,04,16,05,24.40
2013,09,04,16,06,24.40
2013,09,04,16,07,24.50
2013,09,04,16,08,24.50
2013,09,04,16,09,24.50
2013,09,04,16,10,24.60
2013,09,04,16,11,24.70
2013,09,04,16,12,24.80
2013,09,04,16,13,24.80
2013,09,04,16,14,24.90
2013,09,04,16,15,24.90
2013,09,04,16,16,24.90
2013,09,04,16,17,25.00
2013,09,04,16,18,25.00
2013,09,04,16,19,25.10
2013,09,04,16,20,25.20
2013,09,04,16,21,25.20
2013,09,04,16,22,25.20
2013,09,04,16,23,25.20
2013,09,04,16,24,25.10
2013,09,04,16,25,25.10
2013,09,04,16,26,25.00
2013,09,04,16,27,25.00
2013,09,04,16,28,25.00
2013,09,04,16,29,25.00
2013,09,04,16,30,25.00
2013,09,04,16,31,25.10
2013,09,04,16,32,25.10
2013,09,04,16,33,25.20
2013,09,04,16,34,25.40
2013,09,04,16,35,25.50
2013,09,04,16,36,25.60
2013,09,04,16,37,25.70
2013,09,04,16,38,25.70
2013,09,04,16,39,25.70
2013,09,04,16,40,25.70
2013,09,04,16,41,25.70
2013,09,04,16,42,25.60
2013,09,04,16,43,25.60
2013,09,04,16,44,25.40
2013,09,04,16,45,25.30
2013,09,04,16,46,25.20
2013,09,04,16,47,25.10
2013,09,04,16,48,25.10
2013,09,04,16,49,25.00
2013,09,04,16,50,24.90
2013,09,04,16,51,24.90
2013,09,04,16,52,24.90
2013,09,04,16,53,24.90
2013,09,04,16,54,24.90
2013,09,04,16,55,25.00
2013,09,04,16,56,25.00
2013,09,04,16,57,25.00
2013,09,04,16,58,25.10
2013,09,04,16,59,25.10
2013,09,04,17,00,25.10
2013,09,04,17,01,25.10
2013,09,04,17,02,25.20
2013,09,04,17,03,25.20
2013,09,04,17,04,25.30
2013,09,04,17,05,25.30
2013,09,04,17,06,25.30
2013,09,04,17,07,25.20
2013,09,04,17,08,25.00
2013,09,04,17,09,24.80
2013,09,04,17,10,24.60
2013,09,04,17,11,24.40
2013,09,04,17,12,24.20
2013,09,04,17,13,24.10
2013,09,04,17,14,23.90
2013,09,04,17,15,23.80
2013,09,04,17,16,23.80
2013,09,04,17,17,23.70
2013,09,04,17,18,23.70
2013,09,04,17,19,23.60